Weather History for Mammoth, CA

Change the Weather History Date:

Tuesday, April 2, 2013

  Actual Average Record
Temperature  
Mean Temperature 42 °F -  
Max Temperature 62 °F 46 °F 69 °F (2002)
Min Temperature 21 °F 34 °F 19 °F (1997)
Degree Days  
Heating Degree Days 24    
Moisture  
Dew Point 21 °F    
Average Humidity 53    
Maximum Humidity 93    
Minimum Humidity 15    
Precipitation  
Precipitation 0.00 in - - ()
Sea Level Pressure  
Sea Level Pressure 30.17 in    
Wind  
Wind Speed 6 mph (NW)    
Max Wind Speed 13 mph    
Max Gust Speed 22 mph    
Visibility 10 miles    
Events      
Averages and records for this station are not official NWS values.
T = Trace of Precipitation, MM = Missing Value Source: NWS Daily Summary

Daily Weather History Graph

Daily Weather History Graph

Search for Another Location

Airport:

Trip Planner

Search our weather history database for the weather conditions in past years. The results will help you decide how hot, cold, wet, or windy it might be!

Date:

Astronomy

Apr. 02, 2013 Rise Set
Actual Time 6:38 AM PDT 7:19 PM PDT
Civil Twilight 6:12 AM PDT 7:45 PM PDT
Nautical Twilight 5:41 AM PDT 8:17 PM PDT
Astronomical Twilight 5:09 AM PDT 8:49 PM PDT
Moon 1:23 AM PDT (4/2) 11:39 AM PDT (4/2)
Length of Visible Light 13h 33m
Length of Day
12h 40m
Waning Gibbous, 55% of the Moon is Illuminated
Apr 2
Waning Gibbous
Apr 2
Last Quarter
Apr 10
New
Apr 18
First Quarter
Apr 25
Full

Hourly Weather History & Observations

Time (PDT) Temp. Windchill Dew Point Humidity Pressure Visibility Wind Dir Wind Speed Gust Speed Precip Events Conditions
12:15 AM 33.8 °F 26.4 °F 26.6 °F 75% 30.15 in 10.0 mi West 9.2 mph - N/A   Mostly Cloudy
12:35 AM 32.0 °F 24.2 °F 26.6 °F 80% 30.16 in 10.0 mi West 9.2 mph - N/A   Mostly Cloudy
12:55 AM 32.0 °F 25.6 °F 24.8 °F 75% 30.16 in 10.0 mi West 6.9 mph - N/A   Mostly Cloudy
1:15 AM 32.0 °F 24.8 °F 24.8 °F 75% 30.17 in 10.0 mi West 8.1 mph - N/A   Scattered Clouds
1:35 AM 30.2 °F 22.6 °F 24.8 °F 80% 30.17 in 10.0 mi West 8.1 mph - N/A   Clear
1:55 AM 32.0 °F 24.2 °F 26.6 °F 80% 30.17 in 10.0 mi West 9.2 mph - N/A   Clear
2:15 AM 28.4 °F 24.6 °F 23.0 °F 80% 30.17 in 10.0 mi NW 3.5 mph - N/A   Clear
2:35 AM 30.2 °F 21.3 °F 24.8 °F 80% 30.16 in 10.0 mi West 10.4 mph - N/A   Clear
2:55 AM 30.2 °F 23.4 °F 24.8 °F 80% 30.15 in 10.0 mi WNW 6.9 mph - N/A   Clear
3:15 AM 28.4 °F 18.5 °F 24.8 °F 86% 30.16 in 10.0 mi West 11.5 mph - N/A   Clear
3:35 AM 28.4 °F 20.4 °F 24.8 °F 86% 30.16 in 10.0 mi West 8.1 mph - N/A   Clear
3:55 AM 28.4 °F 22.2 °F 24.8 °F 86% 30.16 in 10.0 mi West 5.8 mph - N/A   Clear
4:15 AM 26.6 °F - 23.0 °F 86% 30.16 in 10.0 mi Calm Calm - N/A   Clear
4:35 AM 26.6 °F - 23.0 °F 86% 30.15 in 10.0 mi Calm Calm - N/A   Clear
4:55 AM 24.8 °F 20.5 °F 23.0 °F 93% 30.15 in 10.0 mi North 3.5 mph - N/A   Clear
5:15 AM 26.6 °F 22.6 °F 23.0 °F 86% 30.16 in 10.0 mi WNW 3.5 mph - N/A   Clear
5:35 AM 28.4 °F 24.6 °F 24.8 °F 86% 30.16 in 10.0 mi West 3.5 mph - N/A   Clear
5:55 AM 24.8 °F 20.5 °F 21.2 °F 86% 30.17 in 10.0 mi NNE 3.5 mph - N/A   Clear
6:15 AM 24.8 °F - 21.2 °F 86% 30.17 in 10.0 mi Calm Calm - N/A   Clear
6:35 AM 23.0 °F 18.4 °F 19.4 °F 86% 30.17 in 10.0 mi NNE 3.5 mph - N/A   Clear
6:55 AM 21.2 °F 16.4 °F 19.4 °F 93% 30.18 in 10.0 mi North 3.5 mph - N/A   Clear
7:35 AM 26.6 °F 21.2 °F 23.0 °F 86% 30.19 in 10.0 mi North 4.6 mph - N/A   Clear
7:55 AM 30.2 °F 26.7 °F 23.0 °F 75% 30.19 in 10.0 mi NNE 3.5 mph - N/A   Clear
8:15 AM 35.6 °F - 24.8 °F 65% 30.20 in 10.0 mi North - - N/A   Clear
8:35 AM 39.2 °F - 24.8 °F 56% 30.20 in 10.0 mi Calm Calm - N/A   Clear
8:55 AM 41.0 °F - 24.8 °F 53% 30.20 in 10.0 mi Calm Calm - N/A   Clear
9:15 AM 44.6 °F - 23.0 °F 43% 30.20 in 10.0 mi Calm Calm - N/A   Clear
9:35 AM 46.4 °F - 19.4 °F 34% 30.20 in 10.0 mi Calm Calm - N/A   Clear
9:55 AM 48.2 °F - 17.6 °F 30% 30.20 in 10.0 mi Calm Calm - N/A   Clear
10:15 AM 50.0 °F - 19.4 °F 30% 30.20 in 10.0 mi North 4.6 mph - N/A   Clear
10:35 AM 50.0 °F - 17.6 °F 28% 30.20 in 10.0 mi SSE 4.6 mph - N/A   Clear
10:55 AM 51.8 °F - 17.6 °F 26% 30.20 in 10.0 mi West 3.5 mph - N/A   Clear
11:15 AM 51.8 °F - 15.8 °F 24% 30.20 in 10.0 mi Calm Calm - N/A   Clear
11:35 AM 53.6 °F - 15.8 °F 22% 30.19 in 10.0 mi NW 4.6 mph - N/A   Clear
12:15 PM 55.4 °F - 14.0 °F 20% 30.18 in 10.0 mi South 4.6 mph - N/A   Clear
12:35 PM 57.2 °F - 15.8 °F 20% 30.18 in 10.0 mi WNW 8.1 mph - N/A   Clear
2:35 PM 59.0 °F - 15.8 °F 19% 30.14 in 10.0 mi Calm Calm - N/A   Unknown
3:15 PM 59.0 °F - 15.8 °F 19% 30.13 in 10.0 mi East 6.9 mph - N/A   Clear
3:35 PM 62.6 °F - 15.8 °F 16% 30.12 in 10.0 mi SSE 6.9 mph - N/A   Clear
3:55 PM 62.6 °F - 15.8 °F 16% 30.12 in 10.0 mi NE 6.9 mph - N/A   Clear
4:15 PM 62.6 °F - 14.0 °F 15% 30.12 in 10.0 mi NE 3.5 mph - N/A   Clear
4:35 PM 60.8 °F - 14.0 °F 16% 30.12 in 10.0 mi Calm Calm - N/A   Clear
4:55 PM 60.8 °F - 14.0 °F 16% 30.12 in 10.0 mi Calm Calm - N/A   Clear
5:15 PM 60.8 °F - 14.0 °F 16% 30.12 in 10.0 mi Calm Calm - N/A   Clear
5:35 PM 59.0 °F - 17.6 °F 20% 30.12 in 10.0 mi ESE 4.6 mph - N/A   Clear
5:55 PM 59.0 °F - 10.4 °F 15% 30.12 in 10.0 mi NNE 12.7 mph 21.9 mph N/A   Clear
6:15 PM 59.0 °F - 12.2 °F 16% 30.13 in 10.0 mi NNW 4.6 mph - N/A   Clear
6:35 PM 57.2 °F - 14.0 °F 18% 30.14 in 10.0 mi NNE 8.1 mph - N/A   Clear
6:55 PM 55.4 °F - 17.6 °F 23% 30.14 in 10.0 mi Calm Calm - N/A   Clear
7:15 PM 53.6 °F - 17.6 °F 24% 30.15 in 10.0 mi NNE 4.6 mph - N/A   Clear
7:35 PM 48.2 °F - 19.4 °F 32% 30.15 in 10.0 mi NW 3.5 mph - N/A   Clear
8:15 PM 44.6 °F 41.4 °F 30.2 °F 57% 30.17 in 10.0 mi West 5.8 mph - N/A   Clear
8:35 PM 42.8 °F 40.1 °F 26.6 °F 53% 30.18 in 10.0 mi WNW 4.6 mph - N/A   Clear
9:55 PM 39.2 °F 33.6 °F 24.8 °F 56% 30.21 in 10.0 mi West 8.1 mph - N/A   Clear
10:15 PM 39.2 °F 33.6 °F 24.8 °F 56% 30.22 in 10.0 mi West 8.1 mph - N/A   Clear
10:35 PM 39.2 °F 33.0 °F 24.8 °F 56% 30.22 in 10.0 mi West 9.2 mph - N/A   Clear
10:55 PM 37.4 °F - 24.8 °F 60% 30.22 in 10.0 mi Calm Calm - N/A   Clear
11:15 PM 37.4 °F 33.8 °F 24.8 °F 60% 30.23 in 10.0 mi WNW 4.6 mph - N/A   Clear
11:35 PM 37.4 °F - 24.8 °F 60% 30.23 in 10.0 mi Calm Calm - N/A   Clear